METEOR 1-20

Satellite information

Favourite Embed

Satellite Type and Status

PAYLOADIN ORBIT

Key statistics

Satellite METEOR 1-20 at a glance.

Uptime

18403

Days in orbit

Revolutions

≈ 14.1

Per day

Orbit

LEO

Low Earth Orbit

Inclination

81.2

Latest

Satellite identification and parameters

Extended collection of information and parameters for METEOR 1-20.

Object identification

Identified? True

Debris? False

Object name: METEOR 1-20

International designator: 1974-099A

Object number (NORAD): 7574

Object ID (CCSDS): 7574

Country: COMMONWEALTH OF INDEPENDENT STATES (CIS)

Current information (Y/N): Y

RCS size: LARGE

Orbital parameters

Period: 101.986 minutes

Inclination: 81.2355 deg

SMA: 7230.804 km

Apoapsis: 864.904 km

Periapsis: 840.434 km

RAAN: 357.5825 deg

Eccentricy: 0.001692

Argument of periapsis: 25.0245 deg

Mean anomaly: 335.1743 deg

Mean motion: 14.11961568 rev/day

Mean motion (dot): 0.00000137 rev/day2

B* drag term: 0.000068083 1/REarth

Two-line elements (TLE)

Creation date: May 6, 2025, 3:54 a.m.

Reference frame: TEME

Reference center: EARTH

Epoch: May 5, 2025, 9:45 p.m. UTC

TLE line 0: 0 METEOR 1-20

TLE line 1: 1 07574U 74099A 25125.90656455 .00000137 00000-0 68083-4 0 9997

TLE line 2: 2 07574 81.2355 357.5825 0016920 25.0245 335.1743 14.11961568592981

Live tracking on map

Real-time ground track for satellite METEOR 1-20.

In-orbit conjunctions

A list of the most updated potential collisions computed for object METEOR 1-20.

Target Orbit TCA Probability of collision Miss distance Type
COSMOS 1275 DEB LEO 2025-01-30 16:24:44 0.0001488198 609.0 (m) DEBRIS
THORAD AGENA D DEB SSO 2025-01-10 09:05:10 0.0001480421 558.0 (m) DEBRIS
FENGYUN 1C DEB SSO 2024-12-23 07:28:37 0.0001256091 225.0 (m) DEBRIS
CZ-6A DEB SSO 2024-11-23 21:34:38 0.0001913791 546.0 (m) DEBRIS
FENGYUN 1C DEB SSO 2024-11-23 01:59:51 0.0001287088 503.0 (m) DEBRIS

Associated space launch

The Meteor-1 series was the first series of Soviet meteorological satellites.

METEOR 1-20 was lifted into orbit during the mission ‘Vostok 8A92M | Meteor-1 20 (32L)’, on board a Vostok 8A92M space rocket.

The launch took place on Dec. 17, 1974, 11:45 a.m. from 43/4 (43R).

For more information about the launch, click the button.

Launch to space Vostok 8A92M | Meteor-1 20 (32L)
Vostok 8A92M | Meteor-1 20 (32L)

Agency: N/A

Status: Launch Successful

Launch date: Dec. 17, 1974, 11:45 a.m. UTC

Rocket: Vostok 8A92M

Launch pad: 43/4 (43R)

Location: Plesetsk Cosmodrome, Russian Federation

...

Latest news about this satellite

There are no fresh news available about this satellite. Check back as we update our databases every day.


Newsletter sign-up

Weekly statistics, charts and insights to help you stay on top of the space industry.